Hourly Data Report for September 04, 2017

All times are specified in Local Standard Time (LST). Add 1 hour to adjust for Daylight Saving Time where and when it is observed.

ARVIAT A
NUNAVUT

61°05'38.000" N
94°04'18.000" W
10.40 m
2300427
71174
YEK

Related Data

No related data is available for this station

Download Data

Hourly Data (September 2017)
Hourly Data Report for September 4, 2017
Temp Definition
°C
Dew Point Temp Definition
°C
Rel Hum Definition
%
Wind Dir Definition
10's deg

Wind Spd Definition
km/h
Visibility Definition
km
Stn Press Definition
kPa
Hmdx Definition


Wind Chill Definition


Weather Definition


TIME
00:00 Legend Double Dagger 7.5 6.9 96 1 39 9.7 100.07     Rain,Fog
01:00 Legend Double Dagger 7.0 6.0 94 36 39 11.3 100.11     Rain
02:00 Legend Double Dagger 7.2 5.0 86 1 45 16.1 100.18     LegendNANA
03:00 Legend Double Dagger 6.6 4.4 86 36 41 16.1 100.27     LegendNANA
04:00 Legend Double Dagger 6.5 4.1 85 1 35 16.1 100.35     LegendNANA
05:00 Legend Double Dagger 6.4 4.1 85 1 41 16.1 100.43     LegendNANA
06:00 Legend Double Dagger 6.2 4.2 87 1 37 16.1 100.51     LegendNANA
07:00 Legend Double Dagger 5.6 4.1 90 1 41 16.1 100.61     LegendNANA
08:00 Legend Double Dagger 5.3 4.1 92 1 43 16.1 100.72     LegendNANA
09:00 Legend Double Dagger 5.6 4.3 91 1 39 16.1 100.81     LegendNANA
10:00 Legend Double Dagger 5.8 4.2 89 1 39 16.1 100.88     LegendNANA
11:00 Legend Double Dagger 6.3 4.3 87 1 41 16.1 100.97     LegendNANA
12:00 Legend Double Dagger 7.2 4.9 85 1 37 16.1 101.05     LegendNANA
13:00 Legend Double Dagger 7.5 4.7 82 2 30 16.1 101.11     LegendNANA
14:00 Legend Double Dagger 8.6 5.2 79 2 35 16.1 101.17     LegendNANA
15:00 Legend Double Dagger 8.7 5.2 79 2 32 16.1 101.23     LegendNANA
16:00 Legend Double Dagger 9.1 5.5 78 4 30 16.1 101.31     LegendNANA
17:00 Legend Double Dagger 9.0 6.0 82 5 26 16.1 101.38     LegendNANA
18:00 Legend Double Dagger 7.7 5.5 86 4 21 16.1 101.44     LegendNANA
19:00 Legend Double Dagger 7.3 5.5 88 5 17 16.1 101.51     LegendNANA
20:00 Legend Double Dagger 6.0 5.0 93 5 15 16.1 101.54     LegendNANA
21:00 Legend Double Dagger 5.7 4.8 94 5 9 16.1 101.58     LegendNANA
22:00 Legend Double Dagger 4.4 3.8 96 30 4 16.1 101.58     LegendNANA
23:00 Legend Double Dagger 3.8 3.7 99 30 13 12.9 101.59     LegendNANA

Notes on Data Quality.

Legend

  • E = Estimated
  • M = Missing
  • NA = Not Available
  • ‡ = Partner data that is not subject to review by the National Climate Archives
Date modified: